Location: Melbourne
(37.8170°S, 144.9670°E)
Time: 06:02:32
(UTC+11:00)

Vanguard 1 Rocket - Visible Passes

Search period start: 12 December 2017 00:00
Search period end: 22 December 2017 00:00
Orbit: 656 x 4222 km, 34.3° (Epoch: 09 December)

Date Brightness Start Highest point End Pass type
(mag) Time Alt. Az. Time Alt. Az. Time Alt. Az.
12 Dec 10.6 03:42:06 16° N 03:53:49 28° NNE 04:04:19 10° E visible
13 Dec 11.0 02:34:37 17° NNE 02:40:36 20° NE 02:50:59 10° ENE visible
13 Dec 10.0 04:51:52 10° NW 05:09:48 44° NNE 05:19:50 10° E visible
14 Dec 11.4 01:27:04 12° NE 01:27:07 12° NE 01:33:10 10° ENE visible
14 Dec 10.4 03:44:18 20° NNW 03:56:54 35° NNE 04:08:26 10° E visible
15 Dec 10.8 02:36:40 23° N 02:43:36 27° NE 02:55:56 10° E visible
15 Dec 9.9 04:53:55 11° NW 05:12:54 53° NNE 05:23:24 10° E visible
16 Dec 11.2 01:28:58 18° NE 01:30:04 18° NE 01:41:13 10° ENE visible
16 Dec 10.3 03:46:12 22° NNW 03:59:55 43° NNE 04:12:12 10° E visible
17 Dec 10.7 02:38:24 27° N 02:46:29 34° NNE 03:00:10 10° E visible
17 Dec 9.8 04:55:38 11° NW 05:15:59 60° NNE 05:26:53 10° E visible
18 Dec 11.0 01:30:31 24° NNE 01:32:52 24° NE 01:46:38 10° E visible
18 Dec 10.2 03:47:44 23° NW 04:02:52 51° NNE 04:15:47 10° E visible
19 Dec 11.3 00:22:33 15° NE 00:22:33 15° NE 00:29:45 10° ENE visible
19 Dec 10.5 02:39:45 31° N 02:49:18 41° NNE 03:04:00 10° E visible
19 Dec 9.8 04:57:27 10° WNW 05:19:03 67° NNE 05:30:17 10° E visible
20 Dec 10.8 01:31:39 30° NNE 01:35:31 31° NE 01:51:06 10° E visible
20 Dec 10.1 03:48:50 22° NW 04:05:47 59° NNE 04:19:14 10° E visible
21 Dec 11.1 00:23:27 21° NE 00:23:27 21° NE 00:36:06 10° E visible
21 Dec 10.4 02:40:37 32° NNW 02:52:03 49° NNE 03:07:36 10° E visible
21 Dec 9.8 04:59:52 10° WNW 05:22:07 73° N 05:33:40 10° E visible
